AEE1337 LGAV-LGZA

Flight info

Callsign AEE1337
Flight time 0h 54m
Altitude 24000
Route KOR UN604 ARA
Aircraft A319/M-SDE3FGHIRWY/LB1

Departure

Time 2026-05-04 12:59
Airport Athens Eleftherios Venizelos International Airport (LGAV)

Arrival

Time 2026-05-04 13:53
Airport Zakynthos International Airport Dionysios Solomos (LGZA)
Time Latitude Longitude Altitude Speed Heading
2026-05-04 12:27 37.93654 23.94881 302 ft 0 kts 307°
2026-05-04 12:52 37.93644 23.94898 301 ft 2 kts 308°
2026-05-04 12:52 37.93634 23.94914 301 ft 2 kts 306°
2026-05-04 12:52 37.93624 23.94931 301 ft 2 kts 307°
2026-05-04 12:52 37.93614 23.94948 301 ft 2 kts 308°
2026-05-04 12:53 37.93609 23.94966 302 ft 2 kts 230°
2026-05-04 12:53 37.93621 23.94980 300 ft 2 kts 222°
2026-05-04 12:53 37.93628 23.94986 301 ft 0 kts 218°
2026-05-04 12:55 37.93620 23.94978 302 ft 6 kts 217°
2026-05-04 12:55 37.93561 23.94922 301 ft 16 kts 217°
2026-05-04 12:56 37.93454 23.94820 301 ft 21 kts 217°
2026-05-04 12:56 37.93328 23.94700 301 ft 24 kts 217°
2026-05-04 12:56 37.93214 23.94599 301 ft 17 kts 198°
2026-05-04 12:56 37.93106 23.94598 304 ft 12 kts 160°
2026-05-04 12:57 37.93059 23.94694 300 ft 15 kts 94°
2026-05-04 12:57 37.93103 23.94827 300 ft 18 kts 66°
2026-05-04 12:57 37.93152 23.94972 298 ft 17 kts 66°
2026-05-04 12:57 37.93203 23.95109 295 ft 20 kts 59°
2026-05-04 12:58 37.93344 23.95271 292 ft 38 kts 37°
2026-05-04 12:58 37.93725 23.95633 281 ft 98 kts 37°
2026-05-04 12:58 37.94413 23.96297 312 ft 146 kts 40°
2026-05-04 12:58 37.95186 23.97068 892 ft 142 kts 40°
2026-05-04 12:59 37.95970 23.97862 1462 ft 147 kts 36°
2026-05-04 12:59 37.96778 23.98694 2013 ft 152 kts 34°
2026-05-04 12:59 37.97666 23.99588 2402 ft 174 kts 34°
2026-05-04 12:59 37.98697 24.00534 2873 ft 192 kts 31°
2026-05-04 13:00 37.99861 24.01567 3267 ft 219 kts 32°
2026-05-04 13:00 38.01164 24.02745 3990 ft 237 kts 32°
2026-05-04 13:00 38.02525 24.04006 4879 ft 247 kts 33°
2026-05-04 13:00 38.03948 24.05296 5697 ft 257 kts 27°
2026-05-04 13:01 38.05668 24.05939 6457 ft 262 kts 359°
2026-05-04 13:01 38.07443 24.05466 7346 ft 263 kts 333°
2026-05-04 13:01 38.08852 24.04003 8309 ft 266 kts 308°
2026-05-04 13:01 38.09584 24.01840 9234 ft 275 kts 282°
2026-05-04 13:02 38.09713 23.99391 10141 ft 280 kts 275°
2026-05-04 13:02 38.09799 23.96841 10584 ft 301 kts 275°
2026-05-04 13:02 38.09890 23.94085 10873 ft 324 kts 275°
2026-05-04 13:02 38.09985 23.91162 11412 ft 336 kts 275°
2026-05-04 13:03 38.10081 23.88171 12128 ft 341 kts 275°
2026-05-04 13:03 38.10178 23.85140 12870 ft 346 kts 275°
2026-05-04 13:03 38.10278 23.82064 13620 ft 351 kts 276°
2026-05-04 13:03 38.10380 23.78943 14303 ft 356 kts 275°
2026-05-04 13:04 38.10484 23.75787 14953 ft 360 kts 275°
2026-05-04 13:04 38.10587 23.72595 15600 ft 364 kts 275°
2026-05-04 13:04 38.10692 23.69366 16249 ft 368 kts 275°
2026-05-04 13:04 38.10798 23.66107 16904 ft 371 kts 275°
2026-05-04 13:05 38.10905 23.62808 17560 ft 375 kts 275°
2026-05-04 13:05 38.11012 23.59493 18178 ft 379 kts 274°
2026-05-04 13:05 38.11119 23.56135 18759 ft 383 kts 274°
2026-05-04 13:05 38.11225 23.52746 19356 ft 385 kts 275°
2026-05-04 13:06 38.11332 23.49340 19980 ft 387 kts 275°
2026-05-04 13:06 38.11437 23.45922 20603 ft 389 kts 275°
2026-05-04 13:06 38.11541 23.42482 21242 ft 390 kts 276°
2026-05-04 13:06 38.11647 23.39030 21870 ft 392 kts 276°
2026-05-04 13:07 38.11754 23.35571 22487 ft 393 kts 276°
2026-05-04 13:07 38.11860 23.32099 23115 ft 394 kts 277°
2026-05-04 13:07 38.11963 23.28615 23724 ft 395 kts 277°
2026-05-04 13:07 38.12062 23.25134 24029 ft 394 kts 278°
2026-05-04 13:08 38.12157 23.21668 24112 ft 390 kts 278°
2026-05-04 13:08 38.12249 23.18233 24131 ft 387 kts 278°
2026-05-04 13:08 38.12340 23.14872 24128 ft 386 kts 278°
2026-05-04 13:08 38.12434 23.11470 24127 ft 385 kts 279°
2026-05-04 13:09 38.12529 23.08074 24126 ft 384 kts 279°
2026-05-04 13:09 38.12622 23.04689 24126 ft 383 kts 279°
2026-05-04 13:09 38.12714 23.01307 24125 ft 383 kts 279°
2026-05-04 13:09 38.12805 22.97938 24134 ft 382 kts 279°
2026-05-04 13:10 38.12891 22.94570 24125 ft 381 kts 279°
2026-05-04 13:10 38.12976 22.91208 24124 ft 381 kts 279°
2026-05-04 13:10 38.13063 22.87856 24126 ft 380 kts 279°
2026-05-04 13:10 38.13148 22.84497 24124 ft 380 kts 279°
2026-05-04 13:11 38.13232 22.81147 24114 ft 379 kts 279°
2026-05-04 13:11 38.13316 22.77799 24115 ft 379 kts 279°
2026-05-04 13:11 38.13400 22.74457 24111 ft 379 kts 279°
2026-05-04 13:11 38.13486 22.71113 24106 ft 378 kts 279°
2026-05-04 13:12 38.13570 22.67774 24112 ft 378 kts 279°
2026-05-04 13:12 38.13652 22.64440 24103 ft 378 kts 279°
2026-05-04 13:12 38.13729 22.61094 24099 ft 378 kts 279°
2026-05-04 13:12 38.13801 22.57802 24099 ft 378 kts 279°
2026-05-04 13:13 38.13877 22.54461 24101 ft 378 kts 279°
2026-05-04 13:13 38.13952 22.51127 24097 ft 378 kts 279°
2026-05-04 13:13 38.14024 22.47899 24097 ft 378 kts 279°
2026-05-04 13:13 38.14099 22.44562 24092 ft 378 kts 279°
2026-05-04 13:14 38.14174 22.41222 24095 ft 378 kts 279°
2026-05-04 13:14 38.14246 22.37886 24091 ft 378 kts 279°
2026-05-04 13:14 38.14316 22.34539 24093 ft 379 kts 279°
2026-05-04 13:14 38.14388 22.31197 24091 ft 379 kts 279°
2026-05-04 13:15 38.14457 22.27849 24090 ft 380 kts 279°
2026-05-04 13:15 38.14525 22.24499 24089 ft 379 kts 279°
2026-05-04 13:15 38.14594 22.21145 24083 ft 379 kts 279°
2026-05-04 13:15 38.14662 22.17796 24089 ft 380 kts 279°
2026-05-04 13:16 38.14727 22.14432 24090 ft 381 kts 279°
2026-05-04 13:16 38.14789 22.11070 24092 ft 381 kts 278°
2026-05-04 13:16 38.14850 22.07702 24090 ft 382 kts 278°
2026-05-04 13:16 38.14914 22.04334 24096 ft 381 kts 278°
2026-05-04 13:17 38.14977 22.00965 24097 ft 382 kts 279°
2026-05-04 13:17 38.15042 21.97580 24103 ft 383 kts 279°
2026-05-04 13:17 38.15106 21.94198 23979 ft 383 kts 278°
2026-05-04 13:17 38.15168 21.90826 23749 ft 381 kts 278°
2026-05-04 13:18 38.15227 21.87463 23479 ft 380 kts 278°
2026-05-04 13:18 38.15281 21.84112 23207 ft 379 kts 278°
2026-05-04 13:18 38.15332 21.80770 22939 ft 378 kts 278°
2026-05-04 13:18 38.15382 21.77436 22670 ft 377 kts 278°
2026-05-04 13:19 38.15431 21.74143 22335 ft 371 kts 278°
2026-05-04 13:19 38.15464 21.71977 22047 ft 368 kts 278°
2026-05-04 13:19 38.15514 21.68751 21620 ft 363 kts 278°
2026-05-04 13:19 38.15565 21.65564 21200 ft 358 kts 278°
2026-05-04 13:20 38.15614 21.62420 20786 ft 353 kts 278°
2026-05-04 13:20 38.15661 21.59328 20360 ft 348 kts 278°
2026-05-04 13:20 38.15703 21.56268 19939 ft 343 kts 278°
2026-05-04 13:20 38.15744 21.53256 19513 ft 339 kts 278°
2026-05-04 13:21 38.15786 21.50280 19078 ft 336 kts 278°
2026-05-04 13:21 38.15785 21.47321 18638 ft 336 kts 273°
2026-05-04 13:21 38.15371 21.44372 18110 ft 345 kts 261°
2026-05-04 13:21 38.14431 21.41534 17591 ft 352 kts 248°
2026-05-04 13:22 38.12990 21.38975 17043 ft 361 kts 235°
2026-05-04 13:22 38.11264 21.36648 16506 ft 361 kts 233°
2026-05-04 13:22 38.09540 21.34332 15958 ft 361 kts 233°
2026-05-04 13:22 38.07819 21.32015 15407 ft 360 kts 233°
2026-05-04 13:23 38.06103 21.29696 14858 ft 360 kts 233°
2026-05-04 13:23 38.04392 21.27381 14311 ft 360 kts 232°
2026-05-04 13:23 38.02682 21.25067 13733 ft 360 kts 232°
2026-05-04 13:23 38.00975 21.22758 13163 ft 358 kts 232°
2026-05-04 13:24 37.99274 21.20461 12618 ft 356 kts 231°
2026-05-04 13:24 37.97586 21.18186 12073 ft 353 kts 231°
2026-05-04 13:24 37.95962 21.15998 11564 ft 351 kts 231°
2026-05-04 13:25 37.92627 21.11538 10593 ft 344 kts 230°
2026-05-04 13:25 37.91002 21.09402 10464 ft 329 kts 230°
2026-05-04 13:25 37.89456 21.07375 10334 ft 312 kts 230°
2026-05-04 13:25 37.87978 21.05435 10014 ft 303 kts 230°
2026-05-04 13:26 37.86528 21.03526 9658 ft 301 kts 230°
2026-05-04 13:26 37.85066 21.01593 9164 ft 301 kts 230°
2026-05-04 13:26 37.83635 20.99705 8729 ft 296 kts 230°
2026-05-04 13:26 37.82214 20.97842 8192 ft 292 kts 230°
2026-05-04 13:27 37.81092 20.95776 7514 ft 282 kts 254°
2026-05-04 13:27 37.80806 20.93395 6889 ft 271 kts 278°
2026-05-04 13:27 37.81276 20.91111 6160 ft 268 kts 297°
2026-05-04 13:27 37.82311 20.89177 5452 ft 265 kts 316°
2026-05-04 13:28 37.83754 20.87941 5346 ft 238 kts 336°
2026-05-04 13:28 37.85309 20.87443 4972 ft 228 kts 354°
2026-05-04 13:28 37.86885 20.87344 4423 ft 226 kts 355°
2026-05-04 13:28 37.88454 20.87213 3890 ft 224 kts 354°
2026-05-04 13:29 37.90002 20.87049 3365 ft 223 kts 354°
2026-05-04 13:29 37.91539 20.86876 2869 ft 220 kts 353°
2026-05-04 13:29 37.92986 20.86697 2794 ft 197 kts 349°
2026-05-04 13:29 37.94113 20.86018 2765 ft 167 kts 317°
2026-05-04 13:30 37.94718 20.84846 2730 ft 161 kts 290°
2026-05-04 13:30 37.94792 20.83437 2701 ft 163 kts 261°
2026-05-04 13:30 37.94290 20.82150 2660 ft 167 kts 231°
2026-05-04 13:30 37.93318 20.81345 2622 ft 171 kts 199°
2026-05-04 13:31 37.92130 20.81317 2573 ft 175 kts 166°
2026-05-04 13:31 37.90976 20.81817 2550 ft 175 kts 162°
2026-05-04 13:31 37.89827 20.82312 2442 ft 175 kts 163°
2026-05-04 13:31 37.88705 20.82783 2218 ft 164 kts 164°
2026-05-04 13:32 37.87651 20.83222 2040 ft 156 kts 163°
2026-05-04 13:32 37.86638 20.83644 1851 ft 151 kts 164°
2026-05-04 13:32 37.85652 20.84056 1676 ft 146 kts 163°
2026-05-04 13:32 37.84713 20.84450 1496 ft 142 kts 164°
2026-05-04 13:33 37.83771 20.84852 1357 ft 143 kts 163°
2026-05-04 13:33 37.82836 20.85276 1229 ft 142 kts 162°
2026-05-04 13:33 37.81918 20.85714 1100 ft 141 kts 161°
2026-05-04 13:33 37.81002 20.86138 963 ft 140 kts 164°
2026-05-04 13:34 37.80085 20.86529 819 ft 137 kts 162°
2026-05-04 13:34 37.79192 20.86882 671 ft 133 kts 162°
2026-05-04 13:34 37.78312 20.87210 499 ft 134 kts 162°
2026-05-04 13:34 37.77416 20.87548 362 ft 135 kts 161°
2026-05-04 13:35 37.76506 20.87892 191 ft 139 kts 161°
2026-05-04 13:35 37.74757 20.88545 33 ft 122 kts 161°
2026-05-04 13:35 37.73844 20.88883 416 ft 145 kts 161°
2026-05-04 13:36 37.72857 20.89259 1089 ft 154 kts 163°
2026-05-04 13:36 37.71827 20.89707 1581 ft 160 kts 161°
2026-05-04 13:36 37.70770 20.90244 2108 ft 166 kts 159°
2026-05-04 13:36 37.69698 20.90848 2631 ft 173 kts 156°
2026-05-04 13:37 37.68604 20.91463 3274 ft 170 kts 157°
2026-05-04 13:37 37.67505 20.92022 3840 ft 173 kts 159°
2026-05-04 13:37 37.66399 20.92550 3913 ft 165 kts 160°
2026-05-04 13:37 37.65684 20.92891 3950 ft 162 kts 159°
2026-05-04 13:38 37.64291 20.93572 4019 ft 163 kts 159°
2026-05-04 13:38 37.63235 20.94093 4015 ft 163 kts 159°
2026-05-04 13:38 37.62216 20.94716 3996 ft 163 kts 140°
2026-05-04 13:38 37.61487 20.95788 3997 ft 160 kts 117°
2026-05-04 13:39 37.61092 20.97080 4002 ft 159 kts 96°
2026-05-04 13:39 37.61060 20.98583 4142 ft 186 kts 82°
2026-05-04 13:39 37.61250 21.00265 4042 ft 197 kts 76°
2026-05-04 13:39 37.61421 21.01991 3944 ft 198 kts 79°
2026-05-04 13:40 37.61832 21.03622 3891 ft 192 kts 56°
2026-05-04 13:40 37.62675 21.04912 3969 ft 190 kts 38°
2026-05-04 13:40 37.63841 21.05613 3999 ft 186 kts
2026-05-04 13:40 37.65104 21.05477 4025 ft 184 kts 340°
2026-05-04 13:41 37.66207 21.04673 4047 ft 185 kts 325°
2026-05-04 13:41 37.67139 21.03562 3828 ft 184 kts 310°
2026-05-04 13:41 37.67812 21.02196 3811 ft 184 kts 300°
2026-05-04 13:42 37.68957 20.99273 4033 ft 186 kts 302°
2026-05-04 13:42 37.69698 20.97948 4136 ft 185 kts 312°
2026-05-04 13:42 37.70503 20.96674 4032 ft 187 kts 301°
2026-05-04 13:42 37.71131 20.95265 4027 ft 184 kts 304°
2026-05-04 13:43 37.71858 20.93927 4074 ft 185 kts 308°
2026-05-04 13:43 37.72654 20.92660 4126 ft 184 kts 312°
2026-05-04 13:43 37.73516 20.91461 4182 ft 184 kts 315°
2026-05-04 13:43 37.74433 20.90329 4196 ft 186 kts 317°
2026-05-04 13:44 37.75300 20.89123 4050 ft 185 kts 310°
2026-05-04 13:44 37.76233 20.88036 4010 ft 183 kts 336°
2026-05-04 13:44 37.77481 20.87703 4021 ft 185 kts 353°
2026-05-04 13:44 37.78758 20.87571 4014 ft 184 kts 354°
2026-05-04 13:45 37.80033 20.87436 4012 ft 183 kts 354°
2026-05-04 13:45 37.81300 20.87293 4010 ft 183 kts 354°
2026-05-04 13:45 37.82574 20.87150 4011 ft 183 kts 354°
2026-05-04 13:45 37.83845 20.87007 4010 ft 183 kts 354°
2026-05-04 13:46 37.85107 20.86864 3890 ft 180 kts 354°
2026-05-04 13:46 37.86340 20.86725 3566 ft 175 kts 354°
2026-05-04 13:46 37.87558 20.86588 3085 ft 176 kts 353°
2026-05-04 13:46 37.88781 20.86450 2723 ft 175 kts 353°
2026-05-04 13:47 37.90014 20.86310 2707 ft 180 kts 353°
2026-05-04 13:47 37.91264 20.86170 2702 ft 180 kts 353°
2026-05-04 13:47 37.92493 20.85903 2696 ft 180 kts 336°
2026-05-04 13:47 37.93436 20.84909 2706 ft 181 kts 300°
2026-05-04 13:48 37.93622 20.83361 2699 ft 184 kts 260°
2026-05-04 13:48 37.92930 20.82001 2706 ft 190 kts 219°
2026-05-04 13:48 37.91669 20.81512 2707 ft 196 kts 179°
2026-05-04 13:48 37.90354 20.81884 2707 ft 196 kts 164°
2026-05-04 13:49 37.89060 20.82422 2702 ft 196 kts 162°
2026-05-04 13:49 37.87769 20.82976 2484 ft 191 kts 162°
2026-05-04 13:49 37.86572 20.83491 2268 ft 169 kts 162°
2026-05-04 13:49 37.85528 20.83940 2066 ft 150 kts 163°
2026-05-04 13:50 37.84568 20.84353 1893 ft 143 kts 163°
2026-05-04 13:50 37.83649 20.84751 1718 ft 137 kts 163°
2026-05-04 13:50 37.82762 20.85143 1495 ft 135 kts 163°
2026-05-04 13:50 37.81848 20.85581 1395 ft 143 kts 160°
2026-05-04 13:51 37.80920 20.86054 1208 ft 143 kts 159°
2026-05-04 13:51 37.80023 20.86538 976 ft 138 kts 161°
2026-05-04 13:51 37.79141 20.86942 761 ft 133 kts 161°
2026-05-04 13:51 37.78240 20.87266 571 ft 136 kts 165°
2026-05-04 13:52 37.76448 20.87922 168 ft 132 kts 161°
2026-05-04 13:52 37.75574 20.88248 24 ft 121 kts 163°
2026-05-04 13:52 37.74964 20.88475 18 ft 53 kts 163°
2026-05-04 13:53 37.74683 20.88580 21 ft 20 kts 170°
2026-05-04 13:53 37.74593 20.88598 22 ft 12 kts 117°
2026-05-04 13:53 37.74631 20.88608 21 ft 15 kts 341°
2026-05-04 13:54 37.74967 20.88474 18 ft 16 kts 346°
2026-05-04 13:54 37.75078 20.88500 20 ft 18 kts 36°
2026-05-04 13:54 37.75269 20.88479 20 ft 17 kts 343°
2026-05-04 13:55 37.75360 20.88447 22 ft 10 kts 343°
2026-05-04 13:55 37.75407 20.88515 22 ft 4 kts 73°
2026-05-04 13:55 37.75410 20.88527 20 ft 0 kts 72°